Retour au catalogue

STARLINK-37030

ActifCommunicationsSSO
NORAD 68220·PAYLOAD·🇺🇸 United States

Lancé Mar 17, 2026 depuis Vandenberg Space Force Base

Loading…

Prochains Passages (prochaines 24 heures)

TLE

FraisSource: CelesTrak SupGP

Époque: Sep 14, 2026, 21:39 UTC

1 68220C 26053P   26257.90256944  .00010206  00000+0  31741-3 0  2579
2 68220  97.2848 131.7674 0001549  97.2740 356.0048 15.33374016    15

Suivez STARLINK-37030 en temps réel avec AllMySat

Download on the App Store